Fremont, MI

6:45 AM EST on December 16, 2019 (GMT -0500)
Fremont

Weather History for KFFX - October, 2019

Change the Weather History Date:

Sunday, October 27, 2019

  Actual Average (KMKG) Record (KMKG)
Temperature  
Mean Temperature 48 °F -  
Max Temperature 55 °F 55 °F 75 °F (2014)
Min Temperature 40 °F 38 °F 22 °F (1976)
Degree Days  
Heating Degree Days 18    
Moisture  
Dew Point 44 °F    
Average Humidity 89    
Maximum Humidity 100    
Minimum Humidity 42    
Precipitation  
Precipitation 0.00 in - - ()
Sea Level Pressure  
Sea Level Pressure 29.72 in    
Wind  
Wind Speed 10 mph ()    
Max Wind Speed 17 mph    
Max Gust Speed 26 mph    
Visibility 8.9 miles    
Events Rain    
Averages and records for this station are not official NWS values.
T = Trace of Precipitation, MM = Missing Value Source: Averaged Metar Reports

Daily Weather History Graph

Daily Weather History Graph

Search for Another Location

Airport or City:

Astronomy

Oct. 27, 2019 Rise Set
Actual Time 8:12 AM EDT 6:42 PM EDT
Civil Twilight 7:43 AM EDT 7:11 PM EDT
Nautical Twilight 7:09 AM EDT 7:45 PM EDT
Astronomical Twilight 6:36 AM EDT 8:18 PM EDT
Moon 7:17 AM EDT (10/27) 6:53 PM EDT (10/27)
Length of Visible Light 11h 28m
Length of Day
10h 29m
Waning Crescent, 0% of the Moon is Illuminated
Oct 27
Waning Crescent
Oct 27
New
Nov 4
First Quarter
Nov 12
Full
Nov 19
Last Quarter

Hourly Weather History & Observations

Time (EDT) Temp. Windchill Dew Point Humidity Pressure Visibility Wind Dir Wind Speed Gust Speed Precip Events Conditions
12:15 AM 46.6 °F - 46.6 °F 100% 29.53 in 4.0 mi East 16.1 mph 23.0 mph N/A Rain Light Rain
12:35 AM 46.9 °F - 46.9 °F 100% 29.50 in 3.0 mi East 17.3 mph 25.3 mph N/A Rain Light Rain
12:36 AM 46.9 °F - 46.9 °F 100% 29.50 in 4.0 mi East 17.3 mph 25.3 mph N/A Rain Light Rain
12:59 AM 47.3 °F - 47.3 °F 100% 29.47 in 7.0 mi East 15.0 mph 23.0 mph N/A Rain Light Rain
1:17 AM 47.5 °F - 47.5 °F 100% 29.45 in 10.0 mi East 15.0 mph 20.7 mph N/A   Overcast
1:35 AM 47.7 °F - 47.7 °F 100% 29.44 in 10.0 mi East 16.1 mph 21.9 mph N/A   Overcast
1:55 AM 48.2 °F - 48.2 °F 100% 29.42 in 10.0 mi East 15.0 mph 21.9 mph N/A   Overcast
2:15 AM 48.7 °F - 48.7 °F 100% 29.41 in 10.0 mi East 8.1 mph 17.3 mph N/A   Overcast
2:56 AM 49.5 °F - 49.5 °F 100% 29.39 in 10.0 mi East 11.5 mph 18.4 mph N/A   Overcast
3:15 AM 50.0 °F - 50.0 °F 100% 29.38 in 10.0 mi East 12.7 mph - N/A   Overcast
3:16 AM 50.0 °F - 50.0 °F 100% 29.38 in 10.0 mi East 13.8 mph - N/A   Overcast
3:35 AM 50.0 °F - 50.0 °F 100% 29.37 in 10.0 mi ENE 10.4 mph - N/A   Overcast
3:59 AM 50.2 °F - 50.2 °F 100% 29.38 in 10.0 mi Calm Calm - N/A   Overcast
4:17 AM 50.5 °F - 50.5 °F 100% 29.37 in 10.0 mi ENE 5.8 mph - N/A   Overcast
4:35 AM 50.5 °F - 50.5 °F 100% 29.38 in 10.0 mi North 6.9 mph - N/A   Overcast
4:36 AM 50.5 °F - 50.5 °F 100% 29.38 in 10.0 mi North 6.9 mph - N/A   Overcast
4:55 AM 50.0 °F - 50.0 °F 100% 29.40 in 10.0 mi NW 11.5 mph - N/A Rain Light Rain
4:56 AM 50.0 °F - 50.0 °F 100% 29.40 in 10.0 mi NW 12.7 mph - N/A Rain Light Rain
5:15 AM 49.1 °F - 49.1 °F 100% 29.43 in 4.0 mi WNW 12.7 mph 18.4 mph N/A Rain Heavy Rain
5:20 AM 48.7 °F - 48.7 °F 100% 29.43 in 3.0 mi WNW 15.0 mph 18.4 mph N/A   Heavy Drizzle
5:38 AM 47.3 °F - 47.3 °F 100% 29.45 in 4.0 mi NW 15.0 mph 21.9 mph N/A Rain Heavy Rain
5:56 AM 46.6 °F - 46.6 °F 100% 29.43 in 5.0 mi North 13.8 mph 19.6 mph N/A   Drizzle
6:15 AM 46.8 °F - 46.8 °F 100% 29.44 in 10.0 mi North 12.7 mph 19.6 mph N/A   Overcast
6:35 AM 47.1 °F - 47.1 °F 100% 29.46 in 10.0 mi North 10.4 mph - N/A   Overcast
6:59 AM 47.1 °F - 47.1 °F 100% 29.50 in 10.0 mi NW 10.4 mph - N/A   Overcast
7:17 AM 47.3 °F - 47.3 °F 100% 29.52 in 10.0 mi NW 13.8 mph 20.7 mph N/A   Overcast
7:35 AM 47.3 °F - 47.3 °F 100% 29.54 in 10.0 mi NW 12.7 mph 20.7 mph N/A   Overcast
7:55 AM 47.5 °F - 47.5 °F 100% 29.56 in 7.0 mi NW 11.5 mph - N/A   Overcast
8:15 AM 47.7 °F - 47.7 °F 100% 29.58 in 4.0 mi WNW 9.2 mph - N/A   Overcast
8:38 AM 49.1 °F - 49.1 °F 100% 29.61 in 4.0 mi NW 15.0 mph 20.7 mph N/A   Overcast
8:56 AM 49.8 °F - 49.8 °F 100% 29.63 in 5.0 mi WNW 11.5 mph 20.7 mph N/A   Overcast
9:15 AM 50.0 °F - 50.0 °F 100% 29.66 in 10.0 mi WNW 13.8 mph - N/A   Overcast
9:16 AM 50.0 °F - 50.0 °F 100% 29.66 in 10.0 mi WNW 15.0 mph 19.6 mph N/A   Overcast
9:35 AM 50.2 °F - 50.2 °F 100% 29.69 in 10.0 mi NW 12.7 mph 26.5 mph N/A   Overcast
9:59 AM 50.4 °F - 50.4 °F 100% 29.71 in 7.0 mi NW 16.1 mph 24.2 mph N/A   Overcast
10:17 AM 49.8 °F - 49.8 °F 100% 29.73 in 5.0 mi WNW 11.5 mph 23.0 mph N/A   Overcast
10:35 AM 49.5 °F - 49.5 °F 100% 29.74 in 7.0 mi WNW 13.8 mph 21.9 mph N/A   Overcast
10:36 AM 49.5 °F - 49.5 °F 100% 29.74 in 5.0 mi WNW 13.8 mph 21.9 mph N/A   Overcast
10:55 AM 49.8 °F - 49.8 °F 100% 29.75 in 10.0 mi WNW 10.4 mph 17.3 mph N/A   Overcast
11:15 AM 50.2 °F - 50.2 °F 100% 29.77 in 10.0 mi WNW 10.4 mph 17.3 mph N/A   Overcast
11:38 AM 48.6 °F - 48.6 °F 100% 29.79 in 10.0 mi WNW 12.7 mph 19.6 mph N/A   Overcast
11:56 AM 48.6 °F - 48.6 °F 100% 29.80 in 10.0 mi WNW 9.2 mph - N/A   Overcast
12:15 PM 48.6 °F - 48.6 °F 100% 29.81 in 10.0 mi WNW 12.7 mph - N/A   Overcast
12:35 PM 48.7 °F - 48.7 °F 100% 29.83 in 10.0 mi West 13.8 mph - N/A   Overcast
12:36 PM 48.7 °F - 48.7 °F 100% 29.83 in 10.0 mi West 13.8 mph - N/A   Overcast
12:59 PM 49.5 °F - 49.5 °F 100% 29.83 in 10.0 mi West 10.4 mph - N/A   Overcast
1:17 PM 49.3 °F - 49.3 °F 100% 29.83 in 10.0 mi West 4.6 mph - N/A   Overcast
1:35 PM 50.2 °F - 49.5 °F 97% 29.84 in 10.0 mi West 6.9 mph - N/A   Overcast
1:55 PM 50.9 °F - 43.9 °F 77% 29.84 in 10.0 mi West 8.1 mph - N/A   Mostly Cloudy
2:15 PM 52.9 °F - 44.1 °F 72% 29.83 in 10.0 mi WNW 9.2 mph - N/A   Scattered Clouds
2:20 PM 53.8 °F - 43.3 °F 68% 29.83 in 10.0 mi West 6.9 mph - N/A   Scattered Clouds
2:38 PM 55.0 °F - 42.1 °F 62% 29.84 in 10.0 mi West 6.9 mph - N/A   Scattered Clouds
2:56 PM 54.9 °F - 40.3 °F 58% 29.85 in 10.0 mi West 10.4 mph - N/A   Clear
3:15 PM 55.8 °F - 39.7 °F 55% 29.85 in 10.0 mi WSW 6.9 mph - N/A   Clear
3:35 PM 55.4 °F - 39.0 °F 54% 29.85 in 10.0 mi SW 8.1 mph - N/A   Clear
3:59 PM 55.2 °F - 35.6 °F 48% 29.86 in 10.0 mi WSW 9.2 mph - N/A   Clear
4:17 PM 55.4 °F - 36.0 °F 48% 29.87 in 10.0 mi West 10.4 mph - N/A   Clear
4:35 PM 55.4 °F - 33.6 °F 44% 29.88 in 10.0 mi SW 9.2 mph 18.4 mph N/A   Clear
4:36 PM 55.4 °F - 33.8 °F 44% 29.88 in 10.0 mi WSW 9.2 mph - N/A   Clear
4:55 PM 54.9 °F - 31.8 °F 42% 29.90 in 10.0 mi West 8.1 mph - N/A   Clear
5:15 PM 53.6 °F - 31.1 °F 42% 29.90 in 10.0 mi WSW 12.7 mph 17.3 mph N/A   Clear
5:37 PM 52.5 °F - 32.4 °F 46% 29.91 in 10.0 mi WSW 6.9 mph - N/A   Clear
5:55 PM 51.6 °F - 33.6 °F 50% 29.92 in 10.0 mi WSW 5.8 mph - N/A   Clear
5:56 PM 51.4 °F - 34.0 °F 51% 29.92 in 10.0 mi WSW 6.9 mph - N/A   Clear
6:15 PM 50.4 °F - 34.9 °F 55% 29.93 in 10.0 mi WSW 6.9 mph - N/A   Clear
6:35 PM 48.6 °F - 37.2 °F 65% 29.92 in 10.0 mi SW 8.1 mph - N/A   Clear
6:58 PM 46.9 °F - 38.3 °F 72% 29.93 in 10.0 mi SW 6.9 mph - N/A   Clear
7:16 PM 44.6 °F - 39.0 °F 81% 29.94 in 10.0 mi Calm Calm - N/A   Clear
7:35 PM 44.8 °F - 39.0 °F 80% 29.95 in 10.0 mi Calm Calm - N/A   Clear
7:36 PM 44.8 °F 43.3 °F 39.0 °F 80% 29.95 in 10.0 mi SSW 3.5 mph - N/A   Clear
7:55 PM 44.8 °F 43.3 °F 38.5 °F 79% 29.95 in 10.0 mi South 3.5 mph - N/A   Clear
7:56 PM 44.8 °F 43.3 °F 38.5 °F 79% 29.95 in 10.0 mi South 3.5 mph - N/A   Clear
8:19 PM 45.0 °F 43.5 °F 39.0 °F 80% 29.95 in 10.0 mi South 3.5 mph - N/A   Clear
8:37 PM 44.4 °F 42.9 °F 39.2 °F 82% 29.95 in 10.0 mi SE 3.5 mph - N/A   Clear
8:55 PM 43.3 °F - 42.1 °F 95% 29.96 in 10.0 mi Calm Calm - N/A   Clear
8:56 PM 43.2 °F - 42.4 °F 97% 29.96 in 10.0 mi Calm Calm - N/A   Clear
9:15 PM 43.3 °F - 43.3 °F 100% 29.96 in 10.0 mi Calm Calm - N/A   Clear
9:35 PM 41.7 °F - 41.7 °F 100% 29.96 in 10.0 mi Calm Calm - N/A   Clear
9:58 PM 42.4 °F 40.7 °F 42.4 °F 100% 29.96 in 10.0 mi SSE 3.5 mph - N/A   Clear
10:16 PM 42.3 °F 40.5 °F 42.3 °F 100% 29.96 in 10.0 mi SSE 3.5 mph - N/A   Clear
10:35 PM 40.8 °F - 40.8 °F 100% 29.97 in 10.0 mi Calm Calm - N/A   Clear
10:36 PM 40.8 °F - 40.8 °F 100% 29.97 in 10.0 mi Calm Calm - N/A   Clear
10:55 PM 41.0 °F - 41.0 °F 100% 29.97 in 10.0 mi Calm Calm - N/A   Clear
11:19 PM 40.6 °F - 40.6 °F 100% 29.96 in 7.0 mi Calm Calm - N/A   Clear
11:37 PM 41.9 °F - 41.9 °F 100% 29.96 in 7.0 mi Calm Calm - N/A   Clear
11:55 PM 41.9 °F 40.0 °F 41.9 °F 100% 29.97 in 7.0 mi SSE 3.5 mph - N/A   Clear
11:56 PM 41.9 °F 40.0 °F 41.9 °F 100% 29.97 in 7.0 mi SSE 3.5 mph - N/A   Clear